COSMOS 651

Satellite information

Favourite Embed

Satellite Type and Status

PAYLOADIN ORBIT

Key statistics

Satellite COSMOS 651 at a glance.

Uptime

18791

Days in orbit

Revolutions

≈ 13.9

Per day

Orbit

LEO

Low Earth Orbit

Inclination

65.0

Latest

Satellite identification and parameters

Extended collection of information and parameters for COSMOS 651.

Object identification

Identified? True

Debris? False

Object name: COSMOS 651

International designator: 1974-029A

Object number (NORAD): 7291

Object ID (CCSDS): 7291

Country: COMMONWEALTH OF INDEPENDENT STATES (CIS)

Current information (Y/N): Y

RCS size: LARGE

Orbital parameters

Period: 103.368 minutes

Inclination: 64.9709 deg

SMA: 7296.004 km

Apoapsis: 939.609 km

Periapsis: 896.129 km

RAAN: 213.0252 deg

Eccentricy: 0.0029797

Argument of periapsis: 162.2021 deg

Mean anomaly: 198.0095 deg

Mean motion: 13.93077058 rev/day

Mean motion (dot): -0.00000028 rev/day2

B* drag term: 0.000047919761 1/REarth

Two-line elements (TLE)

Creation date: Oct. 25, 2025, 3:11 a.m.

Reference frame: TEME

Reference center: EARTH

Epoch: Oct. 24, 2025, 10:16 p.m. UTC

TLE line 0: 0 COSMOS 651

TLE line 1: 1 07291U 74029A 25297.92788334 -.00000028 00000-0 47920-4 0 9997

TLE line 2: 2 07291 64.9709 213.0252 0029797 162.2021 198.0095 13.93077058617941

Live tracking on map

Real-time ground track for satellite COSMOS 651.

In-orbit conjunctions

A list of the most updated potential collisions computed for object COSMOS 651.

Target Orbit TCA Probability of collision Miss distance Type
THORAD AGENA D DEB SSO 2025-08-07 13:57:35 0.0009351035 185.0 (m) DEBRIS
FENGYUN 1C DEB SSO 2025-04-23 06:44:55 0.0001192742 461.0 (m) DEBRIS
FENGYUN 1C DEB SSO 2025-01-20 07:15:09 0.0001081634 391.0 (m) DEBRIS
COSMOS 1275 DEB LEO 2024-09-01 02:32:40 0.0001953834 391.0 (m) DEBRIS
FENGYUN 1C DEB SSO 2024-06-20 00:25:11 0.0009973012 43.0 (m) DEBRIS

Associated space launch

High resolution optical reconnaissance satellite of the Vostok-based Zenit family.

COSMOS 651 was lifted into orbit during the mission ‘Soyuz U | Zenit-4MK 25’, on board a Soyuz U space rocket.

The launch took place on May 15, 1974, 8:30 a.m. from 31/6.

For more information about the launch, click the button.

Launch to space Soyuz U | Zenit-4MK 25
Soyuz U | Zenit-4MK 25

Agency: N/A

Status: Launch Successful

Launch date: May 15, 1974, 8:30 a.m. UTC

Rocket: Soyuz U

Launch pad: 31/6

Location: Baikonur Cosmodrome, Republic of Kazakhstan

...

Latest news about this satellite

There are no fresh news available about this satellite. Check back as we update our databases every day.


Newsletter sign-up

Weekly statistics, charts and insights to help you stay on top of the space industry.